RH
51 47 48 50 53 57 60 62 63 64 66 71 79 87 93 96 95 87 78 75 75 76 82 89 95 98 94 89 87 81 71 58 46 43 54 71 86 98 101 100 101 97 88 88 94 96 97 98 98 99 100 100 100 100 100 100 100 100 100 99 96 93 90
51 49 50 52 53 54 56 60 60 59 63 71 78 87 97 101 100 92 84 83 86 88 89 90 92 96 98 99 98 93 87 79 64 51 48 52 62 78 92 99 102 98 91 87 90 92 94 97 98 98 98 98 100 100 99 100 100 100 100 100 100 98 92
52 51 52 53 53 53 52 53 53 55 62 70 78 89 99 102 102 96 91 93 96 97 97 97 98 98 99 102 101 95 93 91 81 67 58 53 50 55 68 84 96 99 94 89 86 85 88 91 94 96 98 99 99 100 101 100 100 100 101 100 100 100 97
54 53 53 53 52 50 48 48 51 56 63 71 81 94 101 101 102 100 98 100 100 100 101 101 101 100 100 103 101 95 93 93 86 78 71 64 55 48 48 58 75 89 95 94 89 81 79 83 88 93 98 101 100 100 100 100 100 101 100 99 98 98 99
58 55 53 54 54 51 50 51 54 60 66 73 85 98 102 100 102 102 100 100 100 100 101 102 102 101 100 99 96 95 97 96 89 83 80 77 71 61 50 46 53 66 80 91 96 90 78 74 79 86 94 100 101 100 100 100 100 100 100 99 96 94 94
59 57 56 56 55 53 53 55 58 64 71 79 91 101 102 100 103 103 100 100 100 100 100 102 102 101 99 97 94 94 99 102 98 91 85 85 86 80 69 60 54 55 63 74 88 96 89 77 72 74 83 93 98 99 99 100 101 100 99 97 92 89 88
61 61 61 59 57 57 57 59 62 67 75 86 97 103 102 101 103 104 101 100 100 100 100 101 103 100 98 98 98 97 100 102 102 101 94 88 89 89 84 78 70 67 69 72 80 92 95 88 79 73 74 84 95 100 98 97 97 96 94 90 85 82 82
67 68 67 64 61 60 61 64 68 74 83 93 100 102 101 101 103 104 102 100 100 100 100 101 103 102 99 100 100 101 102 101 101 103 98 88 84 85 84 82 78 75 78 83 85 88 92 93 92 87 82 84 92 96 92 88 86 84 83 82 81 79 79
75 74 72 68 65 65 67 70 76 82 89 96 101 101 101 101 102 103 103 101 100 100 100 101 103 102 100 101 102 102 101 101 101 101 96 89 85 83 81 79 75 74 79 90 94 93 92 93 94 95 95 95 92 86 82 84 86 87 88 86 84 82 81
88 85 81 78 74 73 74 76 80 85 89 95 100 101 101 102 102 101 102 102 101 100 100 102 103 102 101 101 102 103 102 100 99 97 94 92 89 86 83 79 74 71 73 85 98 99 95 93 91 90 91 93 93 87 81 82 88 95 98 95 89 84 82
99 98 95 92 90 88 87 87 88 90 91 95 100 101 99 99 100 100 101 102 102 101 101 102 102 100 100 101 101 102 101 98 96 93 90 88 86 82 81 78 77 76 73 78 94 102 99 96 89 84 85 85 86 87 80 76 83 95 101 99 95 89 84
102 103 102 102 101 101 99 98 98 98 97 97 99 101 98 95 95 98 100 100 100 99 99 101 102 100 101 102 102 101 101 99 96 93 89 87 84 81 80 78 79 84 82 82 94 101 100 98 89 82 88 90 85 81 76 74 83 94 99 99 98 93 88
99 101 101 101 101 101 101 102 102 102 102 100 98 99 98 94 92 93 95 96 94 93 95 99 100 100 101 102 101 100 100 98 96 96 94 94 92 88 83 81 84 88 85 86 97 101 99 101 95 85 89 96 94 91 89 89 93 97 98 100 100 96 93
97 98 100 100 101 100 99 100 101 101 101 101 99 99 98 96 94 92 92 94 93 90 92 98 101 101 100 102 101 98 97 96 96 96 97 98 99 95 88 86 89 91 85 85 96 101 98 101 101 94 93 98 100 99 100 100 100 99 99 100 101 100 99
100 99 99 99 99 99 99 100 99 99 100 101 101 101 99 98 98 96 93 93 94 93 93 95 98 96 92 94 97 97 97 98 98 99 99 99 99 97 93 93 96 96 89 83 90 100 100 100 101 99 98 99 100 100 101 101 100 100 100 100 101 100 100
101 101 100 99 96 96 99 97 94 96 99 98 99 100 98 96 97 97 96 94 93 93 93 92 90 86 84 87 92 93 96 100 100 100 100 99 98 97 96 98 102 101 92 84 87 97 100 99 100 101 100 100 100 101 101 100 99 100 100 100 99 99 98
98 98 99 100 99 98 99 97 93 95 99 98 98 100 100 97 96 96 97 97 96 94 94 91 87 83 82 85 87 91 98 102 100 100 101 100 97 97 96 96 100 101 95 85 85 93 99 100 100 101 100 100 100 101 101 100 99 99 100 100 100 99 98
99 98 98 100 100 99 100 99 95 95 97 98 98 98 98 100 99 98 100 101 100 99 97 94 92 89 88 88 91 97 102 102 99 101 102 97 91 90 90 88 91 95 92 85 82 87 95 99 100 101 101 100 100 100 100 99 98 98 100 102 101 100 100
101 101 101 102 101 98 97 98 96 92 90 93 95 93 94 98 101 101 102 101 100 101 101 100 99 96 93 93 96 101 101 100 100 101 99 94 89 83 79 78 81 85 85 84 82 82 88 94 98 99 100 101 101 100 100 100 100 101 102 102 100 99 100
101 102 102 101 99 95 91 92 95 93 87 87 91 94 95 97 99 100 101 101 101 101 101 100 99 97 95 95 98 101 101 101 102 101 98 95 89 79 74 76 81 84 87 87 85 83 85 88 90 91 92 93 95 96 97 98 99 100 100 99 96 94 96
102 103 101 99 97 93 89 87 89 92 88 83 84 88 92 94 96 96 97 97 98 96 94 94 94 94 95 95 96 98 99 98 99 101 98 92 85 81 81 82 83 88 93 92 87 85 85 85 84 83 83 82 81 82 85 87 87 88 90 90 88 88 89
102 102 101 100 96 92 90 89 87 88 88 83 78 78 83 87 89 88 87 87 87 86 85 85 85 87 91 94 96 97 98 98 98 100 99 92 85 87 90 88 85 90 94 90 85 85 85 84 81 77 76 75 74 74 75 74 74 75 76 76 77 78 79
103 103 102 102 99 94 92 91 89 87 87 85 81 76 76 82 86 85 82 80 81 81 81 81 82 86 92 97 99 101 102 101 100 101 101 98 94 95 98 98 95 96 94 87 82 82 81 80 78 75 72 70 68 69 69 68 68 69 67 66 65 66 67
100 102 102 101 102 101 97 93 89 87 86 85 82 79 77 79 82 81 79 79 79 80 80 80 82 86 90 95 97 100 102 102 101 100 100 100 100 100 101 102 101 99 96 89 83 79 76 75 75 74 73 73 72 71 70 68 66 65 63 61 59 60 60
100 102 103 101 102 103 101 96 88 83 83 85 84 81 78 75 72 72 73 74 74 73 74 76 81 87 94 98 100 101 102 102 101 100 100 100 100 100 101 101 100 98 96 91 87 84 81 80 79 79 81 86 88 84 78 73 70 65 61 57 55 55 56
99 100 101 102 103 103 101 99 93 83 81 84 84 82 79 74 70 68 67 67 69 73 79 85 91 97 100 101 100 101 102 102 101 100 101 101 100 99 99 99 99 99 97 92 90 89 88 88 90 91 94 98 98 93 85 80 76 71 65 59 56 54 53
96 97 99 101 102 102 101 102 97 86 82 86 88 84 81 78 74 72 73 78 85 92 96 99 101 102 102 101 99 97 97 100 102 101 100 101 101 100 98 95 96 99 100 96 91 88 88 90 92 95 98 99 97 93 88 84 81 76 69 63 60 56 52
95 99 101 101 100 100 101 102 99 92 89 92 91 85 82 83 84 87 91 95 97 97 96 95 95 96 98 100 100 97 93 94 99 101 101 100 101 101 100 98 97 99 101 101 98 95 95 96 96 96 99 99 96 93 90 88 85 79 70 64 63 60 54
100 100 100 100 102 102 101 101 101 99 97 96 92 89 90 94 96 97 96 93 87 85 86 88 88 88 90 93 97 99 97 95 96 99 101 101 101 101 101 101 100 101 101 101 101 100 100 100 99 99 101 101 97 94 93 95 96 89 78 71 68 66 64
101 100 99 101 102 102 101 101 102 102 101 99 97 97 98 97 96 94 91 87 84 82 85 88 89 89 89 92 95 99 101 101 100 99 98 99 99 100 100 100 101 101 101 101 100 100 100 100 100 100 101 101 99 95 95 99 102 98 90 85 84 83 82
99 100 101 100 101 101 101 101 100 100 100 100 100 100 99 98 98 97 93 89 87 88 89 90 92 92 94 96 98 99 101 102 103 102 99 97 98 99 100 100 100 101 101 101 101 101 101 100 100 101 100 101 101 99 98 100 101 99 96 95 98 99 99
100 101 101 100 101 101 101 100 98 96 97 99 101 100 100 100 101 100 95 89 87 89 90 91 93 94 97 99 99 98 98 99 101 103 103 100 99 99 99 100 100 100 100 100 100 100 100 100 100 100 101 101 100 100 100 100 100 99 99 100 102 103 103
101 101 100 101 102 100 98 100 99 96 97 99 100 100 100 101 100 99 94 89 86 86 88 91 93 93 94 96 95 95 96 97 100 103 103 100 99 98 99 99 100 100 100 101 101 101 101 100 100 100 100 100 100 101 101 100 100 100 101 102 104 102 101
102 102 101 101 102 101 101 101 100 97 96 98 99 100 100 100 101 100 97 92 90 90 90 91 92 90 89 91 92 93 95 95 95 96 97 96 95 95 95 96 96 97 98 99 99 98 97 95 95 96 97 99 100 101 99 97 97 98 100 101 102 101 100
101 103 103 101 100 102 103 103 101 99 97 99 100 100 101 100 100 102 101 97 95 96 95 92 90 89 88 90 92 93 93 92 91 90 91 90 89 90 90 91 92 93 94 94 95 96 96 96 97 98 99 101 101 99 97 96 97 99 100 101 100 100 100
101 102 102 101 100 101 103 103 102 100 99 99 101 101 101 100 99 101 102 97 95 98 99 95 92 91 89 90 93 94 93 92 91 90 90 89 88 89 90 91 92 93 93 95 96 97 99 100 101 101 99 97 97 98 100 102 102 101 100 100 100 100 100
Wind_Speed
37 35 34 35 36 37 37 36 35 33 32 31 32 33 34 34 36 38 39 39 39 38 37 35 34 35 37 38 39 40 41 44 48 54 62 69 70 65 56 49 50 54 58 59 58 55 54 55 57 59 59 58 57 56 54 54 56 58 60 63 63 62 62
35 34 33 33 34 36 37 36 35 33 31 30 31 32 33 34 34 36 37 38 38 37 37 37 37 37 37 37 37 38 38 39 42 46 51 58 66 70 67 59 53 54 57 59 58 57 55 53 53 55 58 59 59 58 57 55 55 56 58 60 62 62 63
33 31 30 31 33 35 37 36 34 32 30 30 30 31 32 33 33 33 34 36 36 35 35 35 36 37 37 36 36 37 37 36 38 41 43 47 53 61 67 67 63 58 57 59 61 60 59 56 53 52 53 56 57 56 56 55 55 56 58 60 62 62 62
29 28 28 30 32 34 34 33 32 31 29 28 29 31 32 32 32 31 31 33 34 33 33 34 36 37 36 35 36 37 36 36 37 38 39 41 45 49 56 63 66 64 59 56 57 61 63 60 57 54 52 53 54 54 54 55 56 57 60 62 63 64 63
25 25 26 27 29 30 29 29 28 28 26 26 27 30 31 32 32 31 30 31 32 31 31 33 35 36 36 35 36 36 36 35 36 36 37 38 39 42 46 51 58 64 65 61 55 54 59 62 61 58 55 53 53 53 53 55 57 59 61 63 64 65 66
21 22 22 23 24 25 25 26 25 25 24 24 26 28 30 31 32 31 30 30 31 31 30 32 33 33 33 34 35 36 36 35 34 34 35 36 36 37 39 43 48 54 61 65 61 54 53 57 61 61 59 57 55 54 54 55 57 59 62 64 65 65 66
16 18 19 19 20 21 22 22 23 23 23 24 25 27 30 31 32 32 31 30 32 32 30 30 31 31 31 31 32 34 35 35 34 33 34 34 34 34 34 36 41 46 52 58 61 59 54 53 57 62 62 61 58 57 56 56 57 58 61 63 65 66 65
12 14 15 16 16 17 19 20 21 21 22 22 23 25 29 31 32 32 32 32 33 33 31 29 29 29 29 30 31 33 35 36 36 36 36 35 34 34 33 33 34 39 45 50 54 58 57 53 53 59 62 62 61 60 58 57 58 59 61 62 63 64 64
8 9 10 11 12 14 16 17 18 20 21 22 23 24 27 30 31 32 32 32 33 33 31 29 28 28 28 29 30 32 34 35 36 38 38 37 35 34 34 33 32 33 38 44 47 51 55 53 51 54 58 62 63 63 60 57 56 57 59 60 60 61 62
3 4 5 7 9 12 14 16 18 20 23 24 24 25 27 30 32 32 32 33 32 31 30 29 26 25 25 26 28 30 32 34 35 37 38 37 36 36 35 34 34 34 34 39 44 46 49 52 51 51 54 58 60 61 60 59 56 54 54 56 57 59 60
6 5 4 5 8 11 13 15 18 20 22 24 24 26 28 30 32 33 33 33 32 30 29 27 25 23 22 23 24 26 29 31 34 35 36 37 37 36 35 34 35 35 33 36 41 43 46 48 48 47 51 55 58 60 60 60 58 54 52 52 53 55 57
11 9 6 5 5 7 9 11 13 15 17 19 21 24 26 29 31 33 34 34 33 31 29 27 25 24 22 21 21 23 25 28 32 33 34 36 35 35 34 34 34 34 32 34 38 41 43 45 44 43 46 52 56 60 62 62 60 57 53 51 51 52 53
16 14 12 11 9 8 7 7 7 8 10 14 16 19 22 25 28 30 32 32 31 30 29 27 27 26 24 22 22 22 23 25 28 31 32 32 33 33 34 33 34 33 32 35 39 38 37 40 41 40 42 45 49 55 60 62 59 56 53 51 51 51 52
17 15 14 13 12 11 10 9 6 4 4 6 9 13 17 20 23 25 27 28 28 28 27 27 28 27 26 25 25 25 24 25 26 28 30 31 31 32 32 32 32 32 32 35 40 40 36 36 38 38 37 37 41 46 52 55 55 53 52 51 51 51 51
13 13 12 10 10 10 10 9 7 6 5 4 2 2 6 11 16 21 23 24 25 26 27 28 29 29 28 27 27 27 25 24 24 25 26 29 30 31 31 30 31 31 31 34 39 41 38 36 36 37 36 35 36 38 42 45 46 46 47 48 49 49 50
9 8 9 10 8 8 8 8 7 7 6 5 7 6 5 4 7 13 18 23 24 25 26 28 28 28 27 26 26 26 24 22 21 22 25 27 28 30 30 30 30 30 31 33 35 38 39 38 36 37 37 36 34 35 36 37 38 40 42 45 47 49 49
11 10 10 10 10 8 8 8 7 7 5 3 3 4 6 6 6 6 9 15 21 24 25 25 25 25 24 24 24 23 21 19 19 21 24 25 26 28 30 30 30 30 31 32 33 34 36 37 37 37 38 37 36 35 34 34 34 34 35 38 41 43 45
16 15 15 14 12 10 9 9 9 8 6 4 4 6 6 7 8 7 6 7 12 17 19 20 21 21 21 21 20 19 19 18 19 21 23 24 24 26 28 28 28 29 30 30 32 33 33 34 36 36 38 38 38 37 36 35 33 32 31 32 33 34 36
17 18 18 18 16 14 11 10 10 9 9 8 9 9 9 9 10 9 9 8 8 11 14 16 17 18 19 19 18 19 19 19 21 23 23 22 23 25 26 25 25 26 26 27 29 31 32 32 33 34 36 37 38 38 37 37 35 34 33 33 34 34 34
22 22 22 20 18 16 14 12 12 11 10 10 10 10 10 11 11 11 11 11 11 12 13 15 16 17 18 19 19 19 20 20 22 24 23 22 22 22 21 21 22 23 23 23 25 28 29 30 31 32 33 34 35 36 36 36 35 35 35 36 37 37 37
25 24 22 20 17 16 14 14 13 13 12 11 11 11 11 11 11 12 12 13 14 15 15 15 17 17 18 19 19 20 21 22 22 23 24 23 22 19 18 19 21 21 22 23 24 26 28 29 30 31 31 32 32 33 33 33 33 33 34 35 37 37 37
26 23 19 17 16 14 13 13 13 14 14 13 13 13 13 12 12 12 13 13 14 15 15 16 16 17 17 18 19 21 22 22 22 23 24 25 23 21 20 21 22 22 23 24 24 25 27 28 29 30 31 31 31 31 31 31 31 31 32 33 34 35 35
26 21 17 15 14 14 13 12 12 12 13 14 14 14 14 13 14 14 14 14 14 15 16 17 17 18 19 20 21 23 24 25 24 23 24 25 24 23 22 23 23 24 25 26 25 26 26 27 28 29 29 30 30 30 30 30 30 30 31 31 32 32 33
24 21 18 15 14 14 15 14 13 11 10 11 13 14 14 15 16 16 15 15 15 16 17 18 20 21 22 23 23 24 25 26 27 26 25 26 26 24 23 23 25 26 26 27 27 27 27 27 27 27 27 27 28 28 29 29 30 30 31 31 31 31 31
23 20 18 17 15 14 13 13 12 11 9 9 11 12 13 15 15 15 15 15 16 17 18 19 21 23 24 25 25 25 25 26 27 27 28 28 27 26 25 25 25 25 26 27 27 27 26 26 26 26 26 26 27 28 29 29 29 30 30 31 31 31 31
22 18 18 18 16 14 12 11 9 8 7 8 9 10 11 12 13 13 14 14 15 16 17 19 20 21 22 23 23 23 25 26 25 26 27 28 28 28 27 27 26 25 26 26 25 25 25 24 24 24 25 25 27 29 29 29 29 29 30 30 30 30 31
22 19 20 19 18 16 14 11 6 3 4 6 7 8 9 9 10 10 10 11 11 13 14 15 16 17 17 18 19 20 21 23 24 25 26 28 29 29 28 28 27 26 25 24 23 23 23 23 23 23 23 24 26 27 28 29 29 30 30 30 30 31 31
23 20 20 21 20 18 15 10 4 1 3 4 5 6 6 5 5 6 6 7 8 9 11 12 13 13 14 15 17 18 19 20 22 24 25 26 28 29 29 29 29 28 27 26 25 24 22 22 22 22 22 24 25 25 27 28 28 30 32 32 32 32 32
23 19 19 21 20 18 15 10 6 3 2 3 3 3 3 2 2 1 2 3 4 6 7 9 11 12 13 13 15 16 17 17 19 22 24 25 27 29 30 31 31 30 29 29 28 27 26 25 24 23 22 23 24 25 24 24 27 31 33 33 32 33 33
21 19 18 19 18 15 13 10 7 5 3 3 2 3 3 4 3 2 1 2 3 4 5 7 9 10 11 12 13 14 15 15 16 19 22 24 25 26 28 30 31 31 30 29 29 28 27 27 26 24 23 23 25 27 25 24 26 30 32 32 31 32 33
19 17 15 15 15 14 11 8 6 4 3 2 2 3 3 4 3 1 2 4 4 3 3 4 6 7 8 10 11 11 13 14 15 17 19 22 23 24 25 26 28 30 30 30 30 29 30 29 29 29 28 28 29 30 29 27 28 30 31 30 29 30 30
19 16 14 12 11 11 10 8 6 6 5 4 3 3 3 2 2 3 5 6 6 5 4 4 4 5 6 7 8 9 10 12 13 15 17 20 21 23 24 25 27 28 29 29 29 30 30 30 31 31 31 30 31 31 31 30 30 30 30 29 28 28 28
19 17 14 11 8 8 8 7 6 6 6 6 5 4 3 2 3 5 7 8 8 7 6 5 5 5 5 4 5 6 8 9 11 13 16 17 18 19 21 22 24 25 27 28 28 29 29 30 30 31 31 32 33 33 32 32 31 30 29 28 26 26 26
19 17 14 11 9 7 7 6 6 5 5 5 4 4 4 3 3 5 7 9 10 9 7 6 5 5 4 3 2 3 5 7 9 11 13 14 14 15 16 18 19 21 23 24 26 27 28 29 30 30 31 31 31 30 30 29 28 27 26 25 25 25 24
17 17 14 12 10 8 6 5 4 4 4 4 4 4 4 3 3 5 7 9 10 10 8 6 6 5 4 3 2 1 2 4 5 7 8 9 10 12 13 14 15 16 18 19 21 22 23 24 25 26 26 25 24 24 24 23 23 23 23 24 24 24 24
17 17 16 13 11 9 7 7 5 3 2 2 3 4 5 3 2 4 6 8 10 10 8 7 6 5 5 5 4 2 1 0 2 3 5 6 7 9 10 11 12 12 13 14 16 17 17 18 19 21 22 22 20 20 20 20 20 21 21 22 23 23 22
Wind_Direction
262 258 255 253 250 248 248 248 249 250 251 248 247 247 247 245 244 244 243 239 235 235 238 239 238 239 241 242 242 242 241 240 237 235 234 236 238 239 238 237 237 238 238 238 237 235 234 233 232 230 228 227 227 226 227 227 227 229 230 232 235 235 234
257 254 253 252 250 248 247 248 249 250 249 247 247 247 247 245 243 242 241 237 234 233 236 239 241 241 242 243 242 242 242 242 241 238 236 235 235 237 238 240 240 240 239 240 240 238 237 236 236 235 232 231 230 229 230 231 230 231 231 232 233 234 235
256 254 252 251 249 247 247 248 250 249 246 244 245 246 246 244 241 240 238 234 232 233 235 238 240 241 242 243 243 242 240 240 242 242 241 239 237 236 236 238 240 242 241 241 242 241 239 238 237 238 236 233 232 231 231 232 232 232 233 233 233 233 234
257 254 251 249 248 248 249 249 249 247 245 244 245 245 244 243 240 236 235 232 231 231 233 237 239 240 242 242 244 244 241 239 241 242 242 241 240 238 236 236 238 240 242 243 244 244 243 241 239 238 238 236 232 231 231 231 231 232 233 234 234 233 234
256 253 250 249 250 251 251 251 249 247 246 246 247 245 243 242 237 231 230 230 230 230 233 237 240 241 242 243 245 246 243 242 242 242 242 242 243 241 239 237 237 238 239 241 244 245 244 244 242 240 239 238 235 231 230 230 230 231 232 233 234 234 234
254 252 251 250 251 251 249 249 249 248 248 248 249 245 241 239 235 229 227 228 228 229 232 236 239 241 243 244 245 245 244 244 244 244 243 242 243 244 243 241 238 237 237 238 241 244 243 242 242 242 241 240 238 235 232 231 231 231 231 233 235 235 235
254 252 253 250 248 247 247 249 251 250 250 250 251 246 239 236 233 227 225 227 228 227 230 234 238 241 242 242 243 243 243 243 242 242 242 241 242 244 245 244 241 238 237 236 238 241 243 241 240 240 240 240 240 238 236 235 235 235 234 234 235 237 237
259 258 257 252 248 245 246 249 250 250 250 250 252 248 238 234 232 228 226 228 229 229 230 234 237 240 241 240 240 240 241 241 240 241 243 243 242 243 245 246 244 241 238 237 237 238 240 241 238 236 237 237 237 238 239 239 239 239 239 238 238 238 239
272 268 263 255 250 248 249 251 250 250 250 248 248 246 239 232 230 229 227 228 231 232 232 234 237 238 240 240 240 240 240 240 239 241 243 244 244 245 246 248 249 246 240 237 237 238 238 239 239 236 235 235 236 237 239 241 241 240 240 240 240 240 240
327 300 283 272 265 260 258 257 254 252 252 250 246 242 237 231 227 227 227 228 230 231 230 231 233 236 236 237 239 240 241 241 241 241 243 244 245 245 247 250 251 252 248 238 235 237 237 238 240 239 236 236 236 236 238 240 241 240 239 239 239 240 240
36 13 334 303 286 276 270 265 262 260 256 254 249 242 237 231 226 224 225 227 227 227 226 227 229 232 233 236 239 241 242 243 243 243 244 245 246 247 248 250 251 252 251 243 236 235 237 238 241 242 240 238 237 237 238 239 241 241 240 239 239 240 240
52 44 31 4 330 304 294 282 274 269 262 256 251 245 241 235 228 225 224 226 226 224 223 224 227 230 232 235 239 242 244 245 245 245 245 245 246 246 245 246 247 246 246 242 236 234 235 236 240 243 242 239 237 237 238 238 239 239 241 241 241 241 241
53 52 51 45 38 26 8 343 311 288 270 259 252 247 244 240 234 230 227 228 228 225 222 222 226 231 233 238 244 247 248 248 247 246 245 244 243 243 243 243 244 242 240 238 233 230 231 233 236 240 242 240 238 237 237 237 237 238 239 240 241 241 241
35 36 41 45 44 37 29 23 11 349 311 274 256 249 247 245 241 236 233 232 232 229 225 224 228 233 237 242 249 253 252 250 248 246 245 244 242 243 243 243 243 241 239 238 234 229 226 226 230 236 238 238 237 237 237 237 237 237 238 237 238 238 238
17 14 14 21 31 27 12 6 14 23 31 45 34 291 254 247 244 240 236 234 232 231 231 232 234 238 241 244 249 254 254 249 245 245 245 244 242 242 243 242 242 241 239 238 238 234 228 223 224 229 232 233 233 235 236 236 236 235 235 234 234 234 234
15 3 353 348 355 3 350 340 359 20 33 60 54 24 351 300 260 244 237 233 230 229 230 232 237 240 241 243 247 250 250 246 243 244 246 246 243 241 242 240 239 240 238 237 239 238 233 226 223 226 229 231 232 232 233 233 232 231 232 232 232 233 233
18 9 359 346 339 336 324 315 326 346 355 29 40 334 310 303 294 268 241 230 228 227 227 229 234 237 240 243 244 245 245 245 242 241 243 247 245 242 242 240 237 238 237 235 236 238 235 230 228 227 228 230 231 230 230 231 232 231 231 232 233 233 234
10 3 356 348 339 329 318 306 300 298 293 275 246 241 246 256 267 272 259 229 219 220 222 224 227 231 235 236 237 239 242 242 241 242 244 245 244 241 241 239 237 237 237 235 234 236 236 233 231 230 229 230 231 231 230 231 233 233 232 231 231 231 230
358 351 344 338 330 322 313 303 293 280 263 252 245 237 232 234 243 251 251 240 225 219 219 220 223 227 230 231 234 237 238 237 239 244 247 246 243 242 241 240 237 237 237 235 233 234 235 234 233 233 232 231 231 231 231 232 233 234 234 233 232 231 230
348 341 335 329 321 313 305 297 289 278 264 251 242 237 236 236 237 238 237 235 233 231 229 227 229 232 235 238 240 241 241 241 242 245 248 247 245 244 243 242 239 237 236 233 231 231 233 234 234 234 235 235 234 234 234 235 235 235 236 235 235 234 235
343 337 332 326 319 309 300 291 283 275 266 253 240 234 235 236 238 239 236 233 232 232 234 234 236 238 239 240 241 240 241 242 243 245 247 247 247 245 241 238 236 234 233 231 228 227 227 229 231 232 234 235 236 236 236 237 237 236 236 237 236 236 237
341 338 333 327 322 316 305 292 282 273 266 256 246 240 239 240 242 241 239 237 235 235 235 235 236 238 239 242 244 244 244 242 240 242 245 247 246 241 235 233 232 231 231 232 230 228 226 226 228 229 230 232 233 234 234 235 236 235 236 236 236 236 237
342 341 339 332 327 323 316 302 287 276 265 256 251 245 242 242 244 244 242 240 238 238 237 237 238 241 245 248 250 250 250 246 241 238 241 246 246 242 236 232 230 229 230 231 231 230 230 230 229 229 229 230 231 232 233 234 235 234 235 235 235 235 236
346 345 343 340 332 321 313 304 292 279 264 254 250 244 241 241 242 243 245 245 244 245 245 246 249 253 256 257 256 254 252 248 240 232 231 236 241 240 236 232 230 229 231 232 232 231 232 232 233 233 232 232 232 232 232 233 234 235 235 236 236 235 235
350 348 346 346 340 326 314 304 290 275 262 252 247 243 241 242 243 245 246 248 250 253 254 256 258 260 262 263 261 257 252 248 243 234 226 225 230 233 232 230 229 230 230 230 230 231 232 233 233 233 234 234 235 236 235 234 235 236 236 237 237 238 238
355 353 353 354 355 350 339 323 298 273 256 246 245 245 244 245 249 251 253 255 258 260 263 264 265 265 265 263 262 258 253 247 243 237 228 223 222 225 227 228 229 231 231 230 229 229 231 232 231 232 233 234 235 238 238 238 237 237 237 237 238 239 240
359 359 360 4 11 11 359 346 328 275 239 230 236 243 245 250 257 261 264 268 270 272 273 273 272 269 264 259 257 256 254 248 242 235 230 225 222 222 224 227 230 232 235 236 236 236 235 234 233 234 235 237 239 241 243 242 240 239 238 238 239 240 240
2 2 3 9 19 21 10 2 14 91 182 199 219 232 235 247 259 265 274 279 280 285 284 282 279 274 266 260 256 254 253 249 242 233 227 223 223 221 221 224 228 229 231 234 239 242 244 243 241 239 239 243 246 246 245 245 243 242 241 241 240 242 242
359 2 7 12 19 23 22 22 34 61 130 164 183 196 194 196 205 222 267 277 289 294 284 274 272 269 266 265 263 261 259 253 243 234 224 219 219 220 221 223 225 225 226 229 234 238 242 245 247 246 246 250 252 250 248 245 243 243 244 243 242 243 243
358 0 7 13 16 20 26 33 38 46 75 110 129 142 136 128 131 139 204 281 302 301 276 264 264 262 264 267 267 267 265 256 244 234 225 218 217 219 223 226 227 227 228 231 233 235 235 234 237 240 242 245 248 251 253 251 245 243 244 245 243 243 243
1 360 4 10 14 15 17 19 25 34 52 74 98 115 110 105 108 86 343 331 333 330 302 284 279 274 277 279 273 267 261 253 244 234 225 219 216 218 224 228 229 229 230 232 233 234 232 229 229 234 239 242 243 245 250 252 250 246 246 247 245 242 241
3 2 1 4 12 17 11 2 1 8 16 25 37 56 66 63 36 8 357 356 0 5 2 346 324 307 302 294 281 266 252 243 238 231 224 220 218 219 223 226 228 228 228 229 230 231 231 232 232 235 239 241 240 241 244 247 248 247 247 247 244 240 238
360 360 358 354 358 8 7 359 357 6 18 25 19 12 13 13 5 7 8 12 19 23 19 13 1 340 321 304 283 266 250 241 235 228 223 220 217 217 220 222 225 227 227 228 230 230 232 234 236 237 239 240 240 242 243 244 244 243 243 243 240 236 235
354 355 353 347 344 352 1 3 3 9 22 31 23 4 353 344 352 6 13 20 29 34 34 29 19 5 349 331 303 259 242 239 236 230 226 222 217 216 217 218 221 224 225 227 229 230 231 233 235 237 239 239 239 239 240 239 239 238 238 237 235 232 231
348 349 347 343 341 344 348 351 356 4 16 27 26 9 353 336 338 359 12 21 29 37 46 48 36 27 24 23 18 336 255 248 238 229 224 221 219 219 220 220 220 223 225 227 228 229 230 231 231 230 229 228 228 230 232 234 235 235 235 234 231 228 226
345 345 343 338 336 333 326 323 327 330 340 357 6 2 354 340 338 358 8 14 21 31 46 58 56 49 46 48 46 38 16 256 218 215 212 213 218 221 221 221 220 219 222 225 225 225 226 226 225 224 220 218 218 221 224 226 226 227 229 229 226 223 221